Regional Weather Roundup
Issued by NWS Albany, NY

Home | Current Version | Previous Version | Graphics & Text | Print | Product List | Glossary On
Versions: 1 2 3 4 5 6 7 8 9 10 11 12 13 14 15 16 17 18 19 20 21 22 23 24 25 26 27 28 29 30 31 32 33 34 35 36 37 38 39 40 41 42 43 44 45 46 47 48 49 50
000
ASUS41 KALY 021910
RWRALY

NEW YORK STATE HOURLY WEATHER ROUNDUP
NATIONAL WEATHER SERVICE ALBANY NY
300 PM EDT SUN AUG 02 2015

NOTE: "FAIR" INDICATES FEW OR NO CLOUDS BELOW 12,000 FEET WITH NO
SIGNIFICANT WEATHER AND/OR NO OBSTRUCTIONS TO VISIBILITY.

NYZ032-033-038>043-046>054-057>066-NYZ062>081-022000-
EAST


CITY           SKY/WX    TMP DP  RH WIND       PRES   REMARKS
ALBANY         PTSUNNY   86  57  37 SW9       29.86S
GLENS FALLS    PTSUNNY   80  56  43 SW8G17    29.85S
POUGHKEEPSIE   SUNNY     87  51  28 VRB7      29.87F
NEWBURGH       MOSUNNY   84  54  34 W16       29.90F
MONTGOMERY     MOSUNNY   88  56  33 SW13      29.89S
WHITE PLAINS   MOSUNNY   83  58  42 SE9       29.90F
ISLIP          PTSUNNY   83  62  49 S10       29.89F
NEW YORK CITY  PTSUNNY   87  55  33 S17       29.88F
CENTRAL PARK   MOSUNNY   88  51  28 SW6       29.91F
$$

NYZ005>009-017-018-044>046-055-056-022000-
CENTRAL


CITY           SKY/WX    TMP DP  RH WIND       PRES   REMARKS
FULTON         SUNNY     83  56  39 SW13G20   29.84F
SYRACUSE       MOSUNNY   83  56  39 SW14G22   29.84F
ROME           SUNNY     81  56  42 W6        29.86F
ELMIRA         MOSUNNY   83  54  36 SW12G22   29.88S
BINGHAMTON     MOSUNNY   77  53  43 W10       29.92S
MONTICELLO     MOSUNNY   81  54  39 MISG      29.94F
$$

NYZ026>034-041>043-022000-
NORTH


CITY           SKY/WX    TMP DP  RH WIND       PRES   REMARKS
WATERTOWN      SUNNY     81  58  45 SW15G21   29.82F
FORT DRUM      NOT AVBL
MASSENA        MOSUNNY   81  59  47 SW16G23   29.79F
SARANAC LAKE   CLOUDY    74  53  48 SW13G20   29.86S
PLATTSBURGH    PTSUNNY   78  61  55 SE13      29.81S
$$

NYZ001>004-010>016-019>021-022000-
WEST


CITY           SKY/WX    TMP DP  RH WIND       PRES   REMARKS
NIAGARA FALLS  PTSUNNY   80  54  40 SW21G28   29.81F
BUFFALO        PTSUNNY   82  51  34 SW16G25   29.83F
DUNKIRK        SUNNY     84  56  38 SW10      29.84F
JAMESTOWN      SUNNY     79  52  38 S9G16     29.91F
WELLSVILLE     SUNNY     79  50  36 SW6       29.94F
ROCHESTER      MOSUNNY   82  52  35 SW12G18   29.83F
PENN YAN       MOSUNNY   82  55  39 SW9       29.88F
$$

             KEY
       WCI = WIND CHILL INDEX
       VSB = VISIBILITY
       HX  = HEAT INDEX
$$


USA.gov is the U.S. government's official web portal to all federal, state and local government web resources and services.